Location: Alto Pass Reservoir
(37.5801°N, 89.3084°W)
Time: 11:36:50
(UTC+00:00)

NEOSSAT - Pass Details

Date: 29 September 2022
Orbit: 767 x 784 km, 98.4° (Epoch: 26 November)

Event Time Altitude Azimuth Distance (km) Brightness Sun altitude
Rises 10:45:15 0° 125° (SE) 3,234 ? -13.8°
Reaches altitude 10° 10:48:10 10° 108° (ESE) 2,315 ? -13.3°
Maximum altitude 10:51:39 19° 65° (ENE) 1,784 ? -12.6°
Drops below altitude 10° 10:55:09 10° 21° (NNE) 2,332 ? -11.9°
Sets 10:58:05 0° 4° (N) 3,267 ? -11.3°
